Location: Kellogg
(38.0159°N, 90.0546°W)
Time: 07:01:14
(UTC+00:00)

S-56A Canister/Altair - Pass Details

Date: 20 September 2024
Orbit: 636 x 2487 km, 38.9° (Epoch: 09 October)

Event Time Altitude Azimuth Distance (km) Brightness Sun altitude
Rises 22:30:54 0° 238° (WSW) 2,916 11.9 16.5°
Reaches altitude 10° 22:33:06 10° 233° (SW) 2,032 11.1 16.1°
Maximum altitude 22:37:29 54° 156° (SSE) 862 7.9 15.2°
Drops below altitude 10° 22:42:58 10° 80° (E) 2,520 9.6 14.2°
Sets 22:45:59 0° 76° (ENE) 3,703 10.4 13.6°
